TimeEDT,TemperatureF,Dew PointF,Humidity,Sea Level PressureIn,VisibilityMPH,Wind Direction,Wind SpeedMPH,Gust SpeedMPH,PrecipitationIn,Events,Conditions,WindDirDegrees,DateUTC
12:53 AM,50.0,46.0,86,29.85,-9999.0,NW,6.9,-,N/A,,Unknown,310,2012-10-29 04:53:00
1:53 AM,48.0,45.0,89,29.85,-9999.0,WNW,4.6,-,N/A,,Unknown,300,2012-10-29 05:53:00
2:53 AM,48.9,44.1,83,29.84,-9999.0,NW,10.4,-,N/A,,Unknown,310,2012-10-29 06:53:00
3:53 AM,46.9,42.1,83,29.84,-9999.0,NW,5.8,-,N/A,,Unknown,310,2012-10-29 07:53:00
4:53 AM,45.0,41.0,86,29.85,-9999.0,NW,3.5,-,N/A,,Unknown,310,2012-10-29 08:53:00
5:53 AM,44.1,39.9,85,29.86,-9999.0,NW,4.6,-,N/A,,Unknown,310,2012-10-29 09:53:00
6:53 AM,44.1,39.0,82,29.87,-9999.0,NW,5.8,-,N/A,,Unknown,320,2012-10-29 10:53:00
7:53 AM,43.0,39.0,86,29.88,-9999.0,NW,5.8,-,N/A,,Unknown,310,2012-10-29 11:53:00
8:53 AM,46.9,39.9,77,29.90,-9999.0,NW,8.1,-,N/A,,Unknown,320,2012-10-29 12:53:00
9:53 AM,52.0,37.9,59,29.91,-9999.0,North,11.5,18.4,N/A,,Unknown,350,2012-10-29 13:53:00
10:53 AM,55.0,37.9,53,29.90,-9999.0,NNW,11.5,-,N/A,,Unknown,340,2012-10-29 14:53:00
11:53 AM,57.0,37.9,49,29.89,-9999.0,NNW,12.7,17.3,N/A,,Unknown,330,2012-10-29 15:53:00
12:53 PM,60.1,37.0,42,29.86,-9999.0,North,10.4,-,N/A,,Unknown,350,2012-10-29 16:53:00
1:53 PM,64.0,36.0,35,29.83,-9999.0,West,15.0,19.6,N/A,,Unknown,280,2012-10-29 17:53:00
2:53 PM,64.9,34.0,32,29.79,-9999.0,NW,13.8,20.7,N/A,,Unknown,310,2012-10-29 18:53:00
3:53 PM,64.0,37.0,37,29.78,-9999.0,West,13.8,-,N/A,,Unknown,260,2012-10-29 19:53:00
4:53 PM,64.0,37.0,37,29.77,-9999.0,West,10.4,-,N/A,,Unknown,280,2012-10-29 20:53:00
5:53 PM,63.0,37.0,38,29.77,-9999.0,WNW,8.1,-,N/A,,Unknown,290,2012-10-29 21:53:00
6:53 PM,57.0,34.0,42,29.78,-9999.0,WNW,4.6,-,N/A,,Unknown,300,2012-10-29 22:53:00
7:53 PM,53.1,36.0,52,29.80,-9999.0,WNW,6.9,-,N/A,,Unknown,290,2012-10-29 23:53:00
8:53 PM,54.0,33.1,45,29.83,-9999.0,NW,11.5,-,N/A,,Unknown,310,2012-10-30 00:53:00
9:53 PM,54.0,32.0,43,29.86,-9999.0,WNW,10.4,-,N/A,,Unknown,300,2012-10-30 01:53:00
10:53 PM,53.1,32.0,45,29.87,-9999.0,NW,9.2,-,N/A,,Unknown,310,2012-10-30 02:53:00
11:53 PM,51.1,32.0,48,29.87,-9999.0,WNW,9.2,-,N/A,,Unknown,300,2012-10-30 03:53:00